,,PA_Meas_PMT16A,,PR_Meas_QMR101_102,,RH_Meas_QMH101,,SR_Meas_QMS101,,TA_Meas_QMH101,,GenWind,,GenWind,
time,status,PA,status,PR,status,RH,status,SR,status,TA,status,DirAvg,status,SpdAvg,
2011-09-11, 00:00:04,VALID,918.088,VALID,0,VALID,97.4577,VALID,0,VALID,19.0983,VALID,123,VALID,0.208203,
2011-09-11, 00:01:04,VALID,918.12,VALID,0,VALID,97.4501,VALID,0.107441,VALID,19.1178,VALID,123,VALID,0.523828,
2011-09-11, 00:02:04,VALID,918.087,VALID,0,VALID,97.4577,VALID,0,VALID,19.1178,VALID,123,VALID,0.3375,
2011-09-11, 00:03:04,VALID,918.094,VALID,0,VALID,97.473,VALID,0,VALID,19.0969,VALID,123,VALID,0.730469,
2011-09-11, 00:04:04,VALID,918.086,VALID,0,VALID,97.473,VALID,0.107441,VALID,19.1178,VALID,123,VALID,0.503125,
2011-09-11, 00:05:04,VALID,918.057,VALID,0,VALID,97.4882,VALID,0.107441,VALID,19.0774,VALID,123,VALID,0.782422,
2011-09-11, 00:06:04,VALID,918.052,VALID,0.2,VALID,97.473,VALID,0,VALID,19.0983,VALID,123,VALID,0.609375,
2011-09-11, 00:07:04,VALID,918.052,VALID,0,VALID,97.473,VALID,0.107441,VALID,19.0969,VALID,123,VALID,0.292188,
2011-09-11, 00:08:04,VALID,918.058,VALID,0,VALID,97.473,VALID,0,VALID,19.0983,VALID,123,VALID,0.618359,
2011-09-11, 00:09:04,VALID,918.042,VALID,0,VALID,97.4654,VALID,0,VALID,19.0774,VALID,123,VALID,0.496094,
2011-09-11, 00:10:04,VALID,918.051,VALID,0,VALID,97.4959,VALID,0.107441,VALID,19.0983,VALID,123,VALID,0.451953,
2011-09-11, 00:11:04,VALID,918.046,VALID,0,VALID,97.4882,VALID,0.107441,VALID,19.0774,VALID,123,VALID,0.240234,
2011-09-11, 00:12:04,VALID,918.043,VALID,0,VALID,97.473,VALID,0,VALID,19.0579,VALID,123,VALID,0.430859,
2011-09-11, 00:13:04,VALID,918.058,VALID,0,VALID,97.4882,VALID,0,VALID,19.0593,VALID,123,VALID,0.176953,
2011-09-11, 00:14:04,VALID,918.035,VALID,0,VALID,97.4882,VALID,0,VALID,19.0593,VALID,123,VALID,0,
2011-09-11, 00:15:04,VALID,918.017,VALID,0,VALID,97.4882,VALID,0,VALID,19.0803,VALID,123,VALID,0.522656,
2011-09-11, 00:16:04,VALID,918.013,VALID,0,VALID,97.4882,VALID,0,VALID,19.0398,VALID,123,VALID,0.251172,
2011-09-11, 00:17:04,VALID,918.017,VALID,0,VALID,97.473,VALID,0,VALID,19.0398,VALID,123,VALID,0.382422,
2011-09-11, 00:18:04,VALID,917.973,VALID,0,VALID,97.4882,VALID,0,VALID,19.0608,VALID,123,VALID,0.496484,
2011-09-11, 00:19:04,VALID,917.984,VALID,0,VALID,97.5035,VALID,0,VALID,19.0203,VALID,123,VALID,0.375391,
2011-09-11, 00:20:04,VALID,917.942,VALID,0,VALID,97.4959,VALID,0,VALID,19.0398,VALID,123,VALID,0.00585938,
2011-09-11, 00:21:04,VALID,917.96,VALID,0,VALID,97.5035,VALID,0,VALID,19.0593,VALID,123,VALID,0,
2011-09-11, 00:22:04,VALID,917.953,VALID,0,VALID,97.4959,VALID,0,VALID,19.0803,VALID,123,VALID,0.370313,
2011-09-11, 00:23:04,VALID,917.935,VALID,0,VALID,97.4882,VALID,0,VALID,19.0788,VALID,123,VALID,0.0355469,
2011-09-11, 00:24:04,VALID,917.92,VALID,0,VALID,97.5111,VALID,0,VALID,19.0803,VALID,123,VALID,0.0847656,
2011-09-11, 00:25:04,VALID,917.948,VALID,0,VALID,97.5187,VALID,0,VALID,19.0788,VALID,123,VALID,0.00429688,
2011-09-11, 00:26:04,VALID,917.904,VALID,0,VALID,97.5187,VALID,0,VALID,19.0998,VALID,123,VALID,0.172656,
2011-09-11, 00:27:04,VALID,917.913,VALID,0,VALID,97.4959,VALID,0,VALID,19.0788,VALID,123,VALID,0.153906,
2011-09-11, 00:28:04,VALID,917.908,VALID,0,VALID,97.5264,VALID,0,VALID,19.0998,VALID,123,VALID,0,
2011-09-11, 00:29:04,VALID,917.892,VALID,0,VALID,97.5187,VALID,0,VALID,19.0788,VALID,123,VALID,0,
2011-09-11, 00:30:04,VALID,917.866,VALID,0,VALID,97.5035,VALID,0,VALID,19.1193,VALID,123,VALID,0,
2011-09-11, 00:31:04,VALID,917.891,VALID,0,VALID,97.5187,VALID,0,VALID,19.0998,VALID,123,VALID,0.117188,
2011-09-11, 00:32:04,VALID,917.893,VALID,0,VALID,97.5111,VALID,0,VALID,19.0593,VALID,123,VALID,0,
2011-09-11, 00:33:04,VALID,917.864,VALID,0,VALID,97.5111,VALID,0,VALID,19.0983,VALID,123,VALID,0.11875,
2011-09-11, 00:34:04,VALID,917.863,VALID,0,VALID,97.5111,VALID,0,VALID,19.0998,VALID,123,VALID,0,
2011-09-11, 00:35:04,VALID,917.884,VALID,0,VALID,97.5111,VALID,0,VALID,19.0998,VALID,123,VALID,0,
2011-09-11, 00:36:04,VALID,917.875,VALID,0,VALID,97.534,VALID,0,VALID,19.0983,VALID,123,VALID,0,
2011-09-11, 00:37:04,VALID,917.836,VALID,0,VALID,97.5187,VALID,0,VALID,19.1193,VALID,123,VALID,0,
2011-09-11, 00:38:04,VALID,917.849,VALID,0,VALID,97.5187,VALID,0,VALID,19.1178,VALID,123,VALID,0,
2011-09-11, 00:39:04,VALID,917.845,VALID,0,VALID,97.5111,VALID,0,VALID,19.0983,VALID,123,VALID,0,
2011-09-11, 00:40:04,VALID,917.795,VALID,0,VALID,97.5187,VALID,0,VALID,19.0998,VALID,123,VALID,0,
2011-09-11, 00:41:04,VALID,917.811,VALID,0,VALID,97.5187,VALID,0,VALID,19.1193,VALID,123,VALID,0,
2011-09-11, 00:42:04,VALID,917.808,VALID,0,VALID,97.5187,VALID,0,VALID,19.1178,VALID,123,VALID,0,
2011-09-11, 00:43:04,VALID,917.792,VALID,0,VALID,97.4959,VALID,0,VALID,19.0983,VALID,123,VALID,0,
2011-09-11, 00:44:04,VALID,917.781,VALID,0,VALID,97.5187,VALID,0,VALID,19.0788,VALID,123,VALID,0,
2011-09-11, 00:45:04,VALID,917.745,VALID,0,VALID,97.5035,VALID,0,VALID,19.0998,VALID,123,VALID,0,
2011-09-11, 00:46:04,VALID,917.742,VALID,0,VALID,97.5264,VALID,0,VALID,19.1193,VALID,123,VALID,0,
2011-09-11, 00:47:04,VALID,917.753,VALID,0,VALID,97.5035,VALID,0,VALID,19.1193,VALID,123,VALID,0,
2011-09-11, 00:48:04,VALID,917.749,VALID,0,VALID,97.5035,VALID,0,VALID,19.0983,VALID,123,VALID,0,
2011-09-11, 00:49:04,VALID,917.732,VALID,0,VALID,97.5111,VALID,0,VALID,19.0593,VALID,123,VALID,0,
2011-09-11, 00:50:04,VALID,917.726,VALID,0,VALID,97.4959,VALID,0,VALID,19.0593,VALID,122,VALID,0,
2011-09-11, 00:51:04,VALID,917.683,VALID,0,VALID,97.4959,VALID,0,VALID,19.0593,VALID,122,VALID,0,
2011-09-11, 00:52:04,VALID,917.692,VALID,0,VALID,97.5035,VALID,0,VALID,19.0608,VALID,123,VALID,0,
2011-09-11, 00:53:04,VALID,917.66,VALID,0,VALID,97.5035,VALID,0,VALID,19.0608,VALID,123,VALID,0,
2011-09-11, 00:54:04,VALID,917.668,VALID,0,VALID,97.5035,VALID,0,VALID,19.0593,VALID,123,VALID,0,
2011-09-11, 00:55:04,VALID,917.655,VALID,0,VALID,97.5264,VALID,0,VALID,19.0398,VALID,123,VALID,0,
2011-09-11, 00:56:04,VALID,917.624,VALID,0,VALID,97.5111,VALID,0,VALID,19.0593,VALID,123,VALID,0.460156,
2011-09-11, 00:57:04,VALID,917.598,VALID,0,VALID,97.5111,VALID,0,VALID,19.0593,VALID,123,VALID,0.580469,
2011-09-11, 00:58:04,VALID,917.603,VALID,0,VALID,97.5111,VALID,0,VALID,19.0593,VALID,123,VALID,0.576172,
2011-09-11, 00:59:04,VALID,917.597,VALID,0,VALID,97.5035,VALID,0,VALID,19.0203,VALID,123,VALID,0.523438,
2011-09-11, 01:00:04,VALID,917.571,VALID,0,VALID,97.5416,VALID,0,VALID,19.0593,VALID,123,VALID,0.578516,
2011-09-11, 01:01:04,VALID,917.537,VALID,0,VALID,97.5111,VALID,0,VALID,19.0998,VALID,123,VALID,0.576172,
2011-09-11, 01:02:04,VALID,917.506,VALID,0,VALID,97.5492,VALID,0,VALID,19.0803,VALID,123,VALID,0.573438,
2011-09-11, 01:03:04,VALID,917.487,VALID,0,VALID,97.5187,VALID,0,VALID,19.0608,VALID,123,VALID,0.754687,
2011-09-11, 01:04:04,VALID,917.46,VALID,0,VALID,97.5187,VALID,0,VALID,19.0218,VALID,123,VALID,0.814844,
2011-09-11, 01:05:04,VALID,917.478,VALID,0,VALID,97.534,VALID,0,VALID,19.0218,VALID,123,VALID,0.797266,
2011-09-11, 01:06:04,VALID,917.46,VALID,0,VALID,97.534,VALID,0,VALID,19.0218,VALID,123,VALID,0.791016,
2011-09-11, 01:07:04,VALID,917.454,VALID,0,VALID,97.5416,VALID,0,VALID,19.0218,VALID,123,VALID,0.660937,
2011-09-11, 01:08:04,VALID,917.439,VALID,0,VALID,97.5264,VALID,0,VALID,19.0008,VALID,123,VALID,0.620703,
2011-09-11, 01:09:04,VALID,917.42,VALID,0,VALID,97.5111,VALID,0,VALID,19.0218,VALID,123,VALID,0.776953,
2011-09-11, 01:10:04,VALID,917.406,VALID,0,VALID,97.534,VALID,0,VALID,19.0218,VALID,123,VALID,0.542969,
2011-09-11, 01:11:04,VALID,917.404,VALID,0,VALID,97.5416,VALID,0,VALID,19.0008,VALID,123,VALID,0.625781,
2011-09-11, 01:12:04,VALID,917.375,VALID,0,VALID,97.5569,VALID,0,VALID,18.9814,VALID,123,VALID,0.450781,
2011-09-11, 01:13:04,VALID,917.388,VALID,0,VALID,97.5492,VALID,0.107441,VALID,19.0189,VALID,123,VALID,0.676172,
2011-09-11, 01:14:04,VALID,917.38,VALID,0,VALID,97.5569,VALID,0.107441,VALID,18.9994,VALID,123,VALID,0.467969,
2011-09-11, 01:15:04,VALID,917.366,VALID,0,VALID,97.5492,VALID,0.107441,VALID,18.9994,VALID,123,VALID,0.528906,
2011-09-11, 01:16:04,VALID,917.377,VALID,0,VALID,97.5645,VALID,0.107441,VALID,19.0008,VALID,123,VALID,0.578516,
2011-09-11, 01:17:04,VALID,917.34,VALID,0,VALID,97.5721,VALID,0.107441,VALID,18.9799,VALID,122,VALID,0.327734,
2011-09-11, 01:18:04,VALID,917.321,VALID,0,VALID,97.5721,VALID,0.107441,VALID,19.0008,VALID,122,VALID,0.556641,
2011-09-11, 01:19:04,VALID,917.347,VALID,0,VALID,97.5721,VALID,0.107441,VALID,18.9799,VALID,123,VALID,0.45,
2011-09-11, 01:20:04,VALID,917.328,VALID,0,VALID,97.5569,VALID,0.107441,VALID,18.9409,VALID,123,VALID,0.582031,
2011-09-11, 01:21:04,VALID,917.307,VALID,0,VALID,97.5645,VALID,0.107441,VALID,18.9409,VALID,123,VALID,0.484766,
2011-09-11, 01:22:04,VALID,917.286,VALID,0,VALID,97.5645,VALID,0.107441,VALID,18.9409,VALID,123,VALID,0.353125,
2011-09-11, 01:23:04,VALID,917.275,VALID,0,VALID,97.5873,VALID,0.107441,VALID,18.9409,VALID,124,VALID,0.455078,
2011-09-11, 01:24:04,VALID,917.273,VALID,0,VALID,97.5645,VALID,0.107441,VALID,18.9619,VALID,123,VALID,0.310156,
2011-09-11, 01:25:04,VALID,917.239,VALID,0,VALID,97.5797,VALID,0.107441,VALID,18.9604,VALID,123,VALID,0.238281,
2011-09-11, 01:26:04,VALID,917.217,VALID,0,VALID,97.5721,VALID,0.107441,VALID,18.9604,VALID,123,VALID,0.303516,
2011-09-11, 01:27:04,VALID,917.175,VALID,0,VALID,97.595,VALID,0.214882,VALID,18.9604,VALID,123,VALID,0.283984,
2011-09-11, 01:28:04,VALID,917.185,VALID,0,VALID,97.6026,VALID,0,VALID,18.9814,VALID,123,VALID,0,
2011-09-11, 01:29:04,VALID,917.175,VALID,0,VALID,97.5797,VALID,0,VALID,18.9814,VALID,123,VALID,0,
2011-09-11, 01:30:04,VALID,917.154,VALID,0,VALID,97.5721,VALID,0,VALID,18.9814,VALID,123,VALID,0.139844,
2011-09-11, 01:31:04,VALID,917.137,VALID,0,VALID,97.6026,VALID,0,VALID,18.9814,VALID,123,VALID,0.458984,
2011-09-11, 01:32:04,VALID,917.095,VALID,0,VALID,97.5797,VALID,0,VALID,18.9814,VALID,123,VALID,0.294141,
2011-09-11, 01:33:04,VALID,917.093,VALID,0,VALID,97.5797,VALID,0,VALID,19.0023,VALID,123,VALID,0.591016,
2011-09-11, 01:34:04,VALID,917.069,VALID,0,VALID,97.595,VALID,0,VALID,19.0008,VALID,123,VALID,0.084375,
2011-09-11, 01:35:04,VALID,917.083,VALID,0,VALID,97.5873,VALID,0,VALID,19.0008,VALID,123,VALID,0,
2011-09-11, 01:36:04,VALID,917.039,VALID,0,VALID,97.6102,VALID,0,VALID,19.0203,VALID,123,VALID,0.598828,
2011-09-11, 01:37:04,VALID,917.054,VALID,0,VALID,97.6102,VALID,0.107441,VALID,19.0203,VALID,123,VALID,0.167578,
2011-09-11, 01:38:04,VALID,917.011,VALID,0,VALID,97.5721,VALID,0,VALID,19.0008,VALID,123,VALID,0.415625,
2011-09-11, 01:39:04,VALID,917.003,VALID,0,VALID,97.6102,VALID,0,VALID,19.0218,VALID,122,VALID,0.618359,
2011-09-11, 01:40:04,VALID,916.977,VALID,0,VALID,97.595,VALID,0.107441,VALID,19.0023,VALID,123,VALID,0.662891,
2011-09-11, 01:41:04,VALID,916.973,VALID,0,VALID,97.595,VALID,0,VALID,18.9814,VALID,123,VALID,0.330859,
2011-09-11, 01:42:04,VALID,916.953,VALID,0,VALID,97.6178,VALID,0,VALID,18.9619,VALID,122,VALID,0.282813,
2011-09-11, 01:43:04,VALID,916.969,VALID,0,VALID,97.6178,VALID,0,VALID,18.9619,VALID,123,VALID,0.503516,
2011-09-11, 01:44:04,VALID,916.946,VALID,0,VALID,97.5873,VALID,0,VALID,18.9619,VALID,123,VALID,0.520703,
2011-09-11, 01:45:04,VALID,916.972,VALID,0,VALID,97.6026,VALID,0,VALID,18.9424,VALID,123,VALID,0.254687,
2011-09-11, 01:46:04,VALID,916.956,VALID,0,VALID,97.6102,VALID,0,VALID,18.9619,VALID,123,VALID,0.338281,
2011-09-11, 01:47:04,VALID,916.918,VALID,0,VALID,97.6102,VALID,0,VALID,18.9619,VALID,123,VALID,0.599219,
2011-09-11, 01:48:04,VALID,916.949,VALID,0,VALID,97.6102,VALID,0,VALID,18.9424,VALID,123,VALID,0.329297,
2011-09-11, 01:49:04,VALID,916.889,VALID,0,VALID,97.6026,VALID,0,VALID,18.9828,VALID,123,VALID,0.639063,
2011-09-11, 01:50:04,VALID,916.905,VALID,0,VALID,97.6026,VALID,0,VALID,18.9229,VALID,123,VALID,0.458203,
2011-09-11, 01:51:04,VALID,916.895,VALID,0,VALID,97.6178,VALID,0,VALID,18.9424,VALID,123,VALID,0.578125,
2011-09-11, 01:52:04,VALID,916.893,VALID,0,VALID,97.6331,VALID,0,VALID,18.9633,VALID,123,VALID,0.177734,
2011-09-11, 01:53:04,VALID,916.874,VALID,0,VALID,97.6178,VALID,0,VALID,18.9229,VALID,123,VALID,0.10625,
2011-09-11, 01:54:04,VALID,916.901,VALID,0,VALID,97.6178,VALID,0,VALID,18.9424,VALID,123,VALID,0.228125,
2011-09-11, 01:55:04,VALID,916.862,VALID,0,VALID,97.6331,VALID,0,VALID,18.9438,VALID,123,VALID,0.367188,
2011-09-11, 01:56:04,VALID,916.835,VALID,0,VALID,97.6331,VALID,0,VALID,18.9438,VALID,123,VALID,0.525,
2011-09-11, 01:57:04,VALID,916.821,VALID,0,VALID,97.6026,VALID,0,VALID,18.9243,VALID,123,VALID,0.105859,
2011-09-11, 01:58:04,VALID,916.826,VALID,0,VALID,97.6255,VALID,0,VALID,18.9424,VALID,123,VALID,0.462109,
2011-09-11, 01:59:04,VALID,916.8,VALID,0,VALID,97.6331,VALID,0,VALID,18.9438,VALID,123,VALID,0.537891,
2011-09-11, 02:00:04,VALID,916.774,VALID,0,VALID,97.6102,VALID,0,VALID,18.9243,VALID,123,VALID,0.221094,
2011-09-11, 02:01:04,VALID,916.759,VALID,0,VALID,97.6178,VALID,0.107441,VALID,18.9229,VALID,123,VALID,0.0628906,
2011-09-11, 02:02:04,VALID,916.75,VALID,0,VALID,97.6255,VALID,0,VALID,18.9229,VALID,123,VALID,0.167578,
2011-09-11, 02:03:04,VALID,916.758,VALID,0,VALID,97.6255,VALID,0,VALID,18.9229,VALID,123,VALID,0.113281,
2011-09-11, 02:04:04,VALID,916.739,VALID,0,VALID,97.6331,VALID,0,VALID,18.9243,VALID,122,VALID,0,
2011-09-11, 02:05:04,VALID,916.7,VALID,0,VALID,97.6255,VALID,0,VALID,18.9243,VALID,123,VALID,0.140234,
2011-09-11, 02:06:04,VALID,916.696,VALID,0,VALID,97.6102,VALID,0,VALID,18.8839,VALID,122,VALID,0.446875,
2011-09-11, 02:07:04,VALID,916.713,VALID,0,VALID,97.6407,VALID,0,VALID,18.9048,VALID,123,VALID,0.446875,
2011-09-11, 02:08:04,VALID,916.674,VALID,0,VALID,97.6331,VALID,0,VALID,18.8839,VALID,123,VALID,0.270703,
2011-09-11, 02:09:04,VALID,916.658,VALID,0,VALID,97.6331,VALID,0,VALID,18.8839,VALID,122,VALID,0.0175781,
2011-09-11, 02:10:04,VALID,916.654,VALID,0,VALID,97.6331,VALID,0,VALID,18.8839,VALID,123,VALID,0.332422,
2011-09-11, 02:11:04,VALID,916.655,VALID,0,VALID,97.6407,VALID,0,VALID,18.8839,VALID,123,VALID,0.211719,
2011-09-11, 02:12:04,VALID,916.649,VALID,0,VALID,97.6255,VALID,0,VALID,18.8839,VALID,122,VALID,0.0652344,
2011-09-11, 02:13:04,VALID,916.597,VALID,0,VALID,97.6255,VALID,0,VALID,18.8853,VALID,123,VALID,0.260156,
2011-09-11, 02:14:04,VALID,916.6,VALID,0,VALID,97.6255,VALID,0,VALID,18.9048,VALID,122,VALID,0.270312,
2011-09-11, 02:15:04,VALID,916.586,VALID,0,VALID,97.6178,VALID,0,VALID,18.9034,VALID,123,VALID,0.160938,
2011-09-11, 02:16:04,VALID,916.602,VALID,0,VALID,97.6407,VALID,0,VALID,18.9243,VALID,123,VALID,0.276563,
2011-09-11, 02:17:04,VALID,916.57,VALID,0,VALID,97.6407,VALID,0,VALID,18.8839,VALID,123,VALID,0.150391,
2011-09-11, 02:18:04,VALID,916.566,VALID,0,VALID,97.656,VALID,0,VALID,18.9243,VALID,123,VALID,0,
2011-09-11, 02:19:04,VALID,916.535,VALID,0,VALID,97.6407,VALID,0,VALID,18.9048,VALID,123,VALID,0,
2011-09-11, 02:20:04,VALID,916.514,VALID,0,VALID,97.6407,VALID,0,VALID,18.8853,VALID,123,VALID,0,
2011-09-11, 02:21:04,VALID,916.504,VALID,0,VALID,97.6407,VALID,0,VALID,18.8853,VALID,123,VALID,0,
2011-09-11, 02:22:04,VALID,916.472,VALID,0,VALID,97.6331,VALID,0,VALID,18.8658,VALID,123,VALID,0,
2011-09-11, 02:23:04,VALID,916.467,VALID,0,VALID,97.6407,VALID,0,VALID,18.8658,VALID,123,VALID,0,
2011-09-11, 02:24:04,VALID,916.42,VALID,0,VALID,97.6331,VALID,0,VALID,18.8658,VALID,123,VALID,0,
2011-09-11, 02:25:04,VALID,916.397,VALID,0,VALID,97.6407,VALID,0,VALID,18.8658,VALID,123,VALID,0.205078,
2011-09-11, 02:26:04,VALID,916.386,VALID,0,VALID,97.6407,VALID,0,VALID,18.8463,VALID,123,VALID,0.205859,
2011-09-11, 02:27:04,VALID,916.369,VALID,0,VALID,97.6483,VALID,0,VALID,18.785,VALID,123,VALID,0.293359,
2011-09-11, 02:28:04,VALID,916.365,VALID,0,VALID,97.6255,VALID,0.107441,VALID,18.8254,VALID,123,VALID,0.00351562,
2011-09-11, 02:29:04,VALID,916.362,VALID,0,VALID,97.6407,VALID,0.107441,VALID,18.824,VALID,123,VALID,0.203906,
2011-09-11, 02:30:04,VALID,916.353,VALID,0,VALID,97.6178,VALID,0,VALID,18.8059,VALID,123,VALID,0.254687,
2011-09-11, 02:31:04,VALID,916.326,VALID,0,VALID,97.6255,VALID,0.107441,VALID,18.8254,VALID,123,VALID,0.289453,
2011-09-11, 02:32:04,VALID,916.318,VALID,0,VALID,97.6255,VALID,0.107441,VALID,18.8254,VALID,123,VALID,0.163672,
2011-09-11, 02:33:04,VALID,916.297,VALID,0,VALID,97.6407,VALID,0.107441,VALID,18.8449,VALID,123,VALID,0.186719,
2011-09-11, 02:34:04,VALID,916.259,VALID,0,VALID,97.6483,VALID,0,VALID,18.8449,VALID,123,VALID,0.254297,
2011-09-11, 02:35:04,VALID,916.248,VALID,0,VALID,97.6255,VALID,0.107441,VALID,18.8449,VALID,123,VALID,0.156641,
2011-09-11, 02:36:04,VALID,916.238,VALID,0,VALID,97.656,VALID,0.107441,VALID,18.824,VALID,123,VALID,0.125391,
2011-09-11, 02:37:04,VALID,916.227,VALID,0,VALID,97.6407,VALID,0.107441,VALID,18.8449,VALID,123,VALID,0.354297,
2011-09-11, 02:38:04,VALID,916.221,VALID,0,VALID,97.6255,VALID,0.107441,VALID,18.8254,VALID,123,VALID,0,
2011-09-11, 02:39:04,VALID,916.195,VALID,0,VALID,97.6178,VALID,0,VALID,18.8463,VALID,123,VALID,0.284766,
2011-09-11, 02:40:04,VALID,916.198,VALID,0,VALID,97.6331,VALID,0.107441,VALID,18.8254,VALID,123,VALID,0.334766,
2011-09-11, 02:41:04,VALID,916.179,VALID,0,VALID,97.6483,VALID,0.107441,VALID,18.7626,VALID,123,VALID,0.000390625,
2011-09-11, 02:42:04,VALID,916.143,VALID,0,VALID,97.6178,VALID,0.107441,VALID,18.8254,VALID,123,VALID,0.491016,
2011-09-11, 02:43:04,VALID,916.131,VALID,0,VALID,97.6483,VALID,0,VALID,18.7864,VALID,123,VALID,0.442187,
2011-09-11, 02:44:04,VALID,916.137,VALID,0,VALID,97.6407,VALID,0,VALID,18.7878,VALID,123,VALID,0.280859,
2011-09-11, 02:45:04,VALID,916.121,VALID,0,VALID,97.6255,VALID,0,VALID,18.7878,VALID,123,VALID,0.341797,
2011-09-11, 02:46:04,VALID,916.112,VALID,0,VALID,97.6407,VALID,0,VALID,18.7878,VALID,123,VALID,0.223047,
2011-09-11, 02:47:04,VALID,916.118,VALID,0,VALID,97.6331,VALID,0,VALID,18.8073,VALID,123,VALID,0,
2011-09-11, 02:48:04,VALID,916.101,VALID,0,VALID,97.6407,VALID,0,VALID,18.8073,VALID,123,VALID,0.558203,
2011-09-11, 02:49:04,VALID,916.084,VALID,0,VALID,97.656,VALID,0,VALID,18.8059,VALID,122,VALID,0,
2011-09-11, 02:50:04,VALID,916.089,VALID,0,VALID,97.656,VALID,0,VALID,18.8073,VALID,123,VALID,0.422266,
2011-09-11, 02:51:04,VALID,916.096,VALID,0,VALID,97.6331,VALID,0,VALID,18.8073,VALID,123,VALID,0.289063,
2011-09-11, 02:52:04,VALID,916.078,VALID,0,VALID,97.6636,VALID,0,VALID,18.8268,VALID,123,VALID,0.0046875,
2011-09-11, 02:53:04,VALID,916.062,VALID,0,VALID,97.6483,VALID,0,VALID,18.8073,VALID,123,VALID,0.682422,
2011-09-11, 02:54:04,VALID,916.09,VALID,0,VALID,97.6407,VALID,0,VALID,18.8073,VALID,123,VALID,0.792578,
2011-09-11, 02:55:04,VALID,916.057,VALID,0,VALID,97.6483,VALID,0,VALID,18.7864,VALID,123,VALID,0.943359,
2011-09-11, 02:56:04,VALID,916.056,VALID,0,VALID,97.6636,VALID,0,VALID,18.8073,VALID,123,VALID,0.912891,
2011-09-11, 02:57:04,VALID,916.059,VALID,0,VALID,97.656,VALID,0,VALID,18.7864,VALID,122,VALID,1.0543,
2011-09-11, 02:58:04,VALID,916.047,VALID,0,VALID,97.6483,VALID,0,VALID,18.8268,VALID,123,VALID,0.698047,
2011-09-11, 02:59:04,VALID,916.029,VALID,0,VALID,97.6331,VALID,0,VALID,18.8073,VALID,123,VALID,0.551562,
2011-09-11, 03:00:04,VALID,916.027,VALID,0,VALID,97.6407,VALID,0,VALID,18.8073,VALID,123,VALID,0.383984,
2011-09-11, 03:01:04,VALID,916.083,VALID,0,VALID,97.6636,VALID,0,VALID,18.8268,VALID,123,VALID,0.0949219,
2011-09-11, 03:02:04,VALID,916.06,VALID,0,VALID,97.6712,VALID,0,VALID,18.8268,VALID,122,VALID,0.065625,
2011-09-11, 03:03:04,VALID,916.064,VALID,0,VALID,97.6636,VALID,0,VALID,18.8268,VALID,123,VALID,0.0015625,
2011-09-11, 03:04:04,VALID,916.072,VALID,0,VALID,97.6636,VALID,0,VALID,18.8073,VALID,123,VALID,0.05,
2011-09-11, 03:05:04,VALID,916.071,VALID,0,VALID,97.656,VALID,0,VALID,18.8073,VALID,122,VALID,0,
2011-09-11, 03:06:04,VALID,916.088,VALID,0,VALID,97.656,VALID,0,VALID,18.8073,VALID,123,VALID,0.188281,
2011-09-11, 03:07:04,VALID,916.077,VALID,0,VALID,97.656,VALID,0,VALID,18.8073,VALID,123,VALID,0.0558594,
2011-09-11, 03:08:04,VALID,916.077,VALID,0,VALID,97.6483,VALID,0,VALID,18.7864,VALID,123,VALID,0,
2011-09-11, 03:09:04,VALID,916.092,VALID,0,VALID,97.6636,VALID,0,VALID,18.7669,VALID,123,VALID,0,
2011-09-11, 03:10:04,VALID,916.072,VALID,0,VALID,97.6407,VALID,0,VALID,18.8073,VALID,123,VALID,0,
2011-09-11, 03:11:04,VALID,916.08,VALID,0,VALID,97.6636,VALID,0,VALID,18.8059,VALID,123,VALID,0,
2011-09-11, 03:12:04,VALID,916.066,VALID,0,VALID,97.656,VALID,0,VALID,18.8268,VALID,123,VALID,0,
2011-09-11, 03:13:04,VALID,916.089,VALID,0,VALID,97.6636,VALID,0,VALID,18.8268,VALID,123,VALID,0,
2011-09-11, 03:14:04,VALID,916.051,VALID,0,VALID,97.6636,VALID,0,VALID,18.8059,VALID,123,VALID,0,
2011-09-11, 03:15:04,VALID,916.072,VALID,0,VALID,97.6483,VALID,0,VALID,18.7864,VALID,123,VALID,0,
2011-09-11, 03:16:04,VALID,916.043,VALID,0,VALID,97.6483,VALID,0,VALID,18.8059,VALID,123,VALID,0.0320312,
2011-09-11, 03:17:04,VALID,916.067,VALID,0,VALID,97.656,VALID,0,VALID,18.8254,VALID,123,VALID,0.176563,
2011-09-11, 03:18:04,VALID,916.063,VALID,0,VALID,97.6636,VALID,0,VALID,18.8463,VALID,123,VALID,0.0410156,
2011-09-11, 03:19:04,VALID,916.047,VALID,0,VALID,97.6407,VALID,0,VALID,18.8463,VALID,123,VALID,0,
2011-09-11, 03:20:04,VALID,916.077,VALID,0.2,VALID,97.6483,VALID,0,VALID,18.8449,VALID,123,VALID,0,
2011-09-11, 03:21:04,VALID,916.075,VALID,0,VALID,97.6331,VALID,0,VALID,18.8853,VALID,123,VALID,0,
2011-09-11, 03:22:04,VALID,916.088,VALID,0,VALID,97.6331,VALID,0,VALID,18.8853,VALID,123,VALID,0,
2011-09-11, 03:23:04,VALID,916.061,VALID,0,VALID,97.6407,VALID,0,VALID,18.8449,VALID,123,VALID,0.288672,
2011-09-11, 03:24:04,VALID,916.108,VALID,0,VALID,97.6483,VALID,0,VALID,18.8463,VALID,123,VALID,0.438672,
2011-09-11, 03:25:04,VALID,916.116,VALID,0,VALID,97.6483,VALID,0,VALID,18.8867,VALID,123,VALID,0.513281,
2011-09-11, 03:26:04,VALID,916.096,VALID,0.2,VALID,97.6255,VALID,0,VALID,18.8449,VALID,123,VALID,0.3375,
2011-09-11, 03:27:04,VALID,916.103,VALID,0,VALID,97.6407,VALID,0,VALID,18.8449,VALID,123,VALID,0.396094,
2011-09-11, 03:28:04,VALID,916.122,VALID,0,VALID,97.6331,VALID,0,VALID,18.8463,VALID,123,VALID,0.269531,
2011-09-11, 03:29:04,VALID,916.158,VALID,0,VALID,97.6255,VALID,0,VALID,18.8073,VALID,123,VALID,0.673047,
2011-09-11, 03:30:04,VALID,916.128,VALID,0.2,VALID,97.6331,VALID,0,VALID,18.7878,VALID,123,VALID,0.400391,
2011-09-11, 03:31:04,VALID,916.154,VALID,0,VALID,97.6102,VALID,0,VALID,18.7683,VALID,123,VALID,0.515234,
2011-09-11, 03:32:04,VALID,916.146,VALID,0.2,VALID,97.6026,VALID,0,VALID,18.7474,VALID,123,VALID,0.498437,
2011-09-11, 03:33:04,VALID,916.124,VALID,0,VALID,97.595,VALID,0,VALID,18.7878,VALID,123,VALID,0.410156,
2011-09-11, 03:34:04,VALID,916.154,VALID,0,VALID,97.5873,VALID,0,VALID,18.7878,VALID,123,VALID,0.348828,
2011-09-11, 03:35:04,VALID,916.142,VALID,0,VALID,97.6026,VALID,0,VALID,18.8073,VALID,123,VALID,0.139844,
2011-09-11, 03:36:04,VALID,916.151,VALID,0.2,VALID,97.5721,VALID,0,VALID,18.7669,VALID,123,VALID,0.323828,
2011-09-11, 03:37:04,VALID,916.17,VALID,0,VALID,97.595,VALID,0,VALID,18.7878,VALID,123,VALID,0.272656,
2011-09-11, 03:38:04,VALID,916.172,VALID,0,VALID,97.595,VALID,0,VALID,18.7683,VALID,123,VALID,0.188672,
2011-09-11, 03:39:04,VALID,916.184,VALID,0.2,VALID,97.5797,VALID,0,VALID,18.7474,VALID,123,VALID,0,
2011-09-11, 03:40:04,VALID,916.175,VALID,0.2,VALID,97.5645,VALID,0,VALID,18.7669,VALID,123,VALID,0,
2011-09-11, 03:41:04,VALID,916.19,VALID,0,VALID,97.5721,VALID,0,VALID,18.7864,VALID,123,VALID,0.0015625,
2011-09-11, 03:42:04,VALID,916.186,VALID,0.2,VALID,97.5492,VALID,0,VALID,18.7878,VALID,123,VALID,0,
2011-09-11, 03:43:04,VALID,916.194,VALID,0,VALID,97.5569,VALID,0,VALID,18.7864,VALID,123,VALID,0.310937,
2011-09-11, 03:44:04,VALID,916.175,VALID,0.2,VALID,97.5721,VALID,0,VALID,18.7878,VALID,123,VALID,0.365234,
2011-09-11, 03:45:04,VALID,916.191,VALID,0.2,VALID,97.5721,VALID,0,VALID,18.7878,VALID,123,VALID,0.213672,